SCP
0 0 0 0 0 0 0 0 0 0 0 0 0 0 0 0 0 0 0 0 0 0 0 0 0 0 0 0 0 0 0 0
0 0 0 0 0 0 0 0 0 0 0 0 0 0 0 0 0 0 0 0 0 0 0 0 0 0 0 0 0 0 0 0
0 0 0 0 0 0 0 0 0 0 0 0 0 0 0 0 0 0 0 0 0 0 0 0 0 0 0 0 0 0 0 0
0 0 0 0 0 0 0 0 0 0 0 -0 -0 0 0 0 0 0 0 0 0 0 0 0 0 0 0 0 0 0 0 0
0 0 0 0 0 0 0 0 0 0 -0 0 -0 0 0 0 0 0 0 0 0 0 0 0 0 0 0 0 0 0 0 0
0 0 0 0 0 0 0 0 0 0 -0 -0 -0 -0 0 0 0 0 0 0 0 0 0 0 0 0 0 0 0 0 0 0
0 0 0 0 0 0 0 0 0 -0 0 0 0 0 0 -0 0 0 0 0 0 0 0 0 0 0 0 0 0 0 0 0
0 0 0 0 0 0 0 0 0 0 0 0 0 0 0 0 0 0 0 0 0 0 0 0 0 0 0 0 0 0 0 0
0 0 0 0 0 0 0 0 0 0 0 0 0 0 0 0 0 0 0 0 0 0 0 0 0 0 0 0 0 0 0 0
0 0 0 0 0 0 0 0 0 0 0 0 0 0 0 0 0 0 0 0 0 0 0 0 0 0 -0 -0 0 0 0 0
0 0 0 0 0 0 0 0 0 0 0 0 0 0 0 0 0 0 0 0 0 0 0 0 0 -0 0 -0 0 0 -0 0
0 0 0 0 0 0 0 0 0 -0 0 0 0 0 0 0 0 0 0 -0 -0 -0 -0 -0 -0 -0 -0 0 0 0 0 0
0 0 0 0 0 0 -0 0 0 0 -0 0 0 0 0 -0 -0 -0 -0 -0 -0 -0 -0 0 0 -0 -0 -0 0 0 0 0
0 0 0 0 0 0 0 -0 -0 -0 0 0 0 -0 -0 -0 -0 -0 -0 -0 -0 -0 -0 0 -0 0 -0 -0 -0 -0 0 0
0 0 0 0 0 0 0 -0 -0 -0 -0 -0 -0 -0 -0 0 0 0 0 0 0 0 -0 -0 -0 -0 -0 0 0 0 0 0
0 0 0 0 0 -0 -0 0 0 -0 -0 -0 -0 -0 -0 -0 -0 -0 -0 -0 -0 -0 0 -0 0 0 0 0 0 0 0 0
0 0 0 0 0 0 0 0 0 0 0 0 0 0 0 0 0 -0 -0 -0 -0 -0 -0 0 -0 -0 -0 -0 -0 0 0 0
0 0 0 0 0 0 0 0 0 0 0 0 0 0 0 0 0 0 0 0 0 -0 -0 -0 -0 0 0 0 0 0 0 0
0 0 0 0 0 0 0 -0 0 0 0 0 0 0 0 0 0 0 0 0 0 0 0 0 0 0 0 0 0 0 0 0
0 0 0 0 -0 0 0 0 0 0 0 0 0 0 0 0 0 0 0 0 0 0 0 0 0 0 0 0 0 0 0 0
Wind_Speed_500mb
74 75 77 73 77 72 69 68 66 61 58 59 56 53 57 61 52 57 58 53 55 56 60 73 115 127 129 128 131 126 126 129
75 76 74 79 76 75 71 67 61 60 45 43 44 45 47 58 46 47 49 45 49 56 65 65 84 108 112 110 103 108 114 120
76 75 76 81 81 77 71 66 54 40 19 22 29 29 34 43 45 45 42 44 55 55 68 57 70 87 97 97 77 94 93 94
75 76 78 82 80 74 66 60 48 27 16 16 22 26 29 34 31 36 39 43 43 57 51 28 57 82 72 82 80 71 72 82
74 74 76 77 75 72 64 52 43 26 15 17 22 25 25 21 28 36 44 38 56 55 51 35 42 53 54 48 51 51 52 53
73 72 72 73 71 67 57 49 38 27 14 7 3 9 16 29 37 45 41 43 51 54 53 52 51 47 48 51 51 53 53 53
69 66 66 65 64 61 54 45 34 25 24 18 20 26 32 36 43 51 52 54 51 50 52 53 50 45 42 46 51 51 53 64
63 60 58 56 53 53 48 41 38 33 28 31 34 38 47 50 53 59 58 59 58 54 50 49 45 32 34 38 48 61 66 68
56 53 52 50 49 43 43 43 43 43 37 38 40 46 53 56 61 63 63 62 61 59 59 61 49 40 47 54 65 67 67 65
47 48 47 47 48 47 45 44 46 47 46 44 48 54 58 66 69 71 77 76 75 71 69 69 65 56 58 61 65 67 65 60
41 43 46 47 48 51 53 49 49 44 44 46 54 61 67 69 74 77 80 84 79 77 70 65 64 53 54 55 60 62 58 51
34 43 46 45 45 53 51 52 44 40 41 47 52 58 62 66 69 72 75 77 77 75 69 66 60 57 51 47 44 44 46 44
26 34 37 40 43 49 52 44 41 42 44 46 47 51 54 57 63 65 66 70 71 69 67 61 55 48 42 37 31 29 25 27
19 24 30 35 38 42 44 38 39 39 43 44 44 46 49 51 54 57 56 58 58 57 56 50 42 37 31 27 23 21 19 19
12 14 21 26 31 38 36 33 32 37 40 39 39 44 45 44 43 43 43 42 41 40 38 35 30 23 19 15 12 12 12 16
5 5 10 15 19 23 26 24 24 28 31 31 31 31 33 35 34 32 36 30 28 27 23 19 17 13 10 8 5 5 10 15
15 11 7 6 8 12 17 19 17 16 19 20 19 20 20 19 21 23 21 19 18 16 14 11 12 10 9 8 8 11 13 18
20 17 15 11 7 5 6 9 11 10 9 10 10 11 10 10 9 8 9 8 7 7 5 5 4 4 6 6 8 13 17 22
27 24 21 18 14 11 9 6 2 4 5 4 2 3 4 3 3 2 2 4 5 8 9 11 13 14 16 18 21 22 24 23
33 30 28 25 21 19 16 13 11 7 3 3 3 5 7 8 10 11 12 14 15 15 16 18 21 23 25 27 26 26 28 28
Wind_Direction_500mb
329 327 330 326 333 332 329 321 314 301 283 269 262 259 259 240 247 250 249 246 238 236 229 228 205 211 217 220 218 222 224 223
334 334 336 341 342 341 340 333 326 319 284 262 258 258 257 231 244 242 241 228 236 231 223 218 216 216 210 214 218 221 218 218
340 341 345 349 350 350 347 342 340 335 292 263 255 252 242 242 249 236 232 221 246 220 218 219 224 236 213 214 231 225 222 217
344 350 353 354 354 354 354 350 346 340 324 277 258 251 240 246 241 214 213 213 220 188 179 183 222 213 216 224 217 217 227 225
349 356 359 358 357 357 358 359 355 350 324 287 268 257 251 220 199 199 204 205 202 199 193 195 215 215 207 211 222 217 213 212
353 358 3 1 2 4 5 6 8 2 14 34 169 176 170 169 164 162 172 165 155 164 168 175 183 188 194 194 191 191 185 188
359 3 6 7 8 10 12 18 22 34 51 72 100 119 131 147 151 149 147 139 141 142 146 159 164 160 176 183 171 172 168 165
3 7 10 13 15 21 23 31 43 54 68 83 105 116 127 132 132 126 124 126 123 126 137 138 135 145 157 159 152 153 152 151
9 13 18 20 23 31 39 46 55 65 74 87 100 104 109 115 113 113 115 114 114 116 117 117 115 133 142 136 141 144 148 150
16 21 26 31 37 37 47 55 65 71 81 89 98 105 108 107 108 111 112 113 113 112 113 113 123 129 134 140 142 142 140 140
25 30 35 36 44 49 50 54 62 71 83 96 101 104 105 108 110 113 112 111 113 115 118 122 125 130 134 136 136 134 134 134
34 39 43 46 49 56 57 60 64 72 83 92 98 102 105 109 110 111 111 113 112 112 113 114 116 118 120 122 126 132 138 142
45 51 53 52 54 60 61 62 67 74 77 82 88 94 100 103 106 107 109 110 111 112 112 111 114 118 123 126 129 133 139 149
61 64 65 63 61 63 66 66 71 77 81 85 91 95 100 104 108 111 114 116 120 122 122 120 121 124 124 126 132 140 149 160
76 77 76 73 69 68 68 68 74 81 86 88 92 95 95 95 98 100 102 104 105 107 110 116 122 124 124 128 141 157 170 181
173 119 92 84 79 77 77 72 70 79 85 90 93 96 102 106 103 102 104 100 100 104 103 101 110 117 125 135 163 194 194 206
212 204 177 134 114 99 90 87 78 81 91 92 91 93 94 93 105 111 110 107 108 113 117 125 140 151 163 177 195 215 222 230
223 219 212 206 193 171 132 101 94 84 87 95 97 95 96 99 102 99 121 128 137 142 150 166 190 245 267 280 273 262 255 254
227 226 225 225 219 215 219 219 179 90 71 59 43 37 42 34 8 347 303 283 274 274 281 288 296 299 295 290 282 272 280 271
227 229 233 232 228 229 232 237 243 247 264 298 306 295 297 305 307 305 299 292 290 288 287 285 285 284 285 285 281 282 281 284
Wind_Speed_850mb
74 75 77 73 77 72 69 68 66 61 58 59 56 53 57 61 52 57 58 53 55 56 60 73 115 127 129 128 131 126 126 129
75 76 74 79 76 75 71 67 61 60 45 43 44 45 47 58 46 47 49 45 49 56 65 65 84 108 112 110 103 108 114 120
76 75 76 81 81 77 71 66 54 40 19 22 29 29 34 43 45 45 42 44 55 55 68 57 70 87 97 97 77 94 93 94
75 76 78 82 80 74 66 60 48 27 16 16 22 26 29 34 31 36 39 43 43 57 51 28 57 82 72 82 80 71 72 82
74 74 76 77 75 72 64 52 43 26 15 17 22 25 25 21 28 36 44 38 56 55 51 35 42 53 54 48 51 51 52 53
73 72 72 73 71 67 57 49 38 27 14 7 3 9 16 29 37 45 41 43 51 54 53 52 51 47 48 51 51 53 53 53
69 66 66 65 64 61 54 45 34 25 24 18 20 26 32 36 43 51 52 54 51 50 52 53 50 45 42 46 51 51 53 64
63 60 58 56 53 53 48 41 38 33 28 31 34 38 47 50 53 59 58 59 58 54 50 49 45 32 34 38 48 61 66 68
56 53 52 50 49 43 43 43 43 43 37 38 40 46 53 56 61 63 63 62 61 59 59 61 49 40 47 54 65 67 67 65
47 48 47 47 48 47 45 44 46 47 46 44 48 54 58 66 69 71 77 76 75 71 69 69 65 56 58 61 65 67 65 60
41 43 46 47 48 51 53 49 49 44 44 46 54 61 67 69 74 77 80 84 79 77 70 65 64 53 54 55 60 62 58 51
34 43 46 45 45 53 51 52 44 40 41 47 52 58 62 66 69 72 75 77 77 75 69 66 60 57 51 47 44 44 46 44
26 34 37 40 43 49 52 44 41 42 44 46 47 51 54 57 63 65 66 70 71 69 67 61 55 48 42 37 31 29 25 27
19 24 30 35 38 42 44 38 39 39 43 44 44 46 49 51 54 57 56 58 58 57 56 50 42 37 31 27 23 21 19 19
12 14 21 26 31 38 36 33 32 37 40 39 39 44 45 44 43 43 43 42 41 40 38 35 30 23 19 15 12 12 12 16
5 5 10 15 19 23 26 24 24 28 31 31 31 31 33 35 34 32 36 30 28 27 23 19 17 13 10 8 5 5 10 15
15 11 7 6 8 12 17 19 17 16 19 20 19 20 20 19 21 23 21 19 18 16 14 11 12 10 9 8 8 11 13 18
20 17 15 11 7 5 6 9 11 10 9 10 10 11 10 10 9 8 9 8 7 7 5 5 4 4 6 6 8 13 17 22
27 24 21 18 14 11 9 6 2 4 5 4 2 3 4 3 3 2 2 4 5 8 9 11 13 14 16 18 21 22 24 23
33 30 28 25 21 19 16 13 11 7 3 3 3 5 7 8 10 11 12 14 15 15 16 18 21 23 25 27 26 26 28 28
Wind_Direction_850mb
329 327 330 326 333 332 329 321 314 301 283 269 262 259 259 240 247 250 249 246 238 236 229 228 205 211 217 220 218 222 224 223
334 334 336 341 342 341 340 333 326 319 284 262 258 258 257 231 244 242 241 228 236 231 223 218 216 216 210 214 218 221 218 218
340 341 345 349 350 350 347 342 340 335 292 263 255 252 242 242 249 236 232 221 246 220 218 219 224 236 213 214 231 225 222 217
344 350 353 354 354 354 354 350 346 340 324 277 258 251 240 246 241 214 213 213 220 188 179 183 222 213 216 224 217 217 227 225
349 356 359 358 357 357 358 359 355 350 324 287 268 257 251 220 199 199 204 205 202 199 193 195 215 215 207 211 222 217 213 212
353 358 3 1 2 4 5 6 8 2 14 34 169 176 170 169 164 162 172 165 155 164 168 175 183 188 194 194 191 191 185 188
359 3 6 7 8 10 12 18 22 34 51 72 100 119 131 147 151 149 147 139 141 142 146 159 164 160 176 183 171 172 168 165
3 7 10 13 15 21 23 31 43 54 68 83 105 116 127 132 132 126 124 126 123 126 137 138 135 145 157 159 152 153 152 151
9 13 18 20 23 31 39 46 55 65 74 87 100 104 109 115 113 113 115 114 114 116 117 117 115 133 142 136 141 144 148 150
16 21 26 31 37 37 47 55 65 71 81 89 98 105 108 107 108 111 112 113 113 112 113 113 123 129 134 140 142 142 140 140
25 30 35 36 44 49 50 54 62 71 83 96 101 104 105 108 110 113 112 111 113 115 118 122 125 130 134 136 136 134 134 134
34 39 43 46 49 56 57 60 64 72 83 92 98 102 105 109 110 111 111 113 112 112 113 114 116 118 120 122 126 132 138 142
45 51 53 52 54 60 61 62 67 74 77 82 88 94 100 103 106 107 109 110 111 112 112 111 114 118 123 126 129 133 139 149
61 64 65 63 61 63 66 66 71 77 81 85 91 95 100 104 108 111 114 116 120 122 122 120 121 124 124 126 132 140 149 160
76 77 76 73 69 68 68 68 74 81 86 88 92 95 95 95 98 100 102 104 105 107 110 116 122 124 124 128 141 157 170 181
173 119 92 84 79 77 77 72 70 79 85 90 93 96 102 106 103 102 104 100 100 104 103 101 110 117 125 135 163 194 194 206
212 204 177 134 114 99 90 87 78 81 91 92 91 93 94 93 105 111 110 107 108 113 117 125 140 151 163 177 195 215 222 230
223 219 212 206 193 171 132 101 94 84 87 95 97 95 96 99 102 99 121 128 137 142 150 166 190 245 267 280 273 262 255 254
227 226 225 225 219 215 219 219 179 90 71 59 43 37 42 34 8 347 303 283 274 274 281 288 296 299 295 290 282 272 280 271
227 229 233 232 228 229 232 237 243 247 264 298 306 295 297 305 307 305 299 292 290 288 287 285 285 284 285 285 281 282 281 284